H1 CPF 2 NER 2021 10 13 9 286 01 glonass143 H2 2007501 9143 46805 2021 10 13 0 0 0 2021 10 16 23 45 0 900 1 1 0 0 0 1 H9 10 0 59500 0.00000 0 15804422.749 3663194.107 19694125.746 10 0 59500 900.00000 0 17469731.766 5271050.489 17832324.609 10 0 59500 1800.00000 0 19062716.342 6584997.717 15624414.919 10 0 59500 2700.00000 0 20520124.315 7598781.430 13113167.129 10 0 59500 3600.00000 0 21780749.555 8318857.195 10347264.081 10 0 59500 4500.00000 0 22788000.027 8763860.808 7380363.112 10 0 59500 5400.00000 0 23492294.829 8963568.034 4270058.717 10 0 59500 6300.00000 0 23853188.935 8957387.898 1076765.544 10 0 59500 7200.00000 0 23841135.427 8792453.388 -2137456.585 10 0 59500 8100.00000 0 23438809.990 8521390.730 -5310112.485 10 0 59500 9000.00000 0 22641940.686 8199862.174 -8379492.248 10 0 59500 9900.00000 0 21459606.890 7883987.064 -11285878.100 10 0 59500 10800.00000 0 19913993.694 7627751.308 -13972713.236 10 0 59500 11700.00000 0 18039611.143 7480515.936 -16387709.088 10 0 59500 12600.00000 0 15882010.419 7484731.223 -18483868.723 10 0 59500 13500.00000 0 13496050.315 7673954.109 -20220405.955 10 0 59500 14400.00000 0 10943786.277 8071253.678 -21563542.021 10 0 59500 15300.00000 0 8292070.235 8688072.859 -22487164.141 10 0 59500 16200.00000 0 5609961.353 9523595.106 -22973333.295 10 0 59500 17100.00000 0 2966055.591 10564643.374 -23012631.542 10 0 59500 18000.00000 0 425845.290 11786116.094 -22604342.404 10 0 59500 18900.00000 0 -1950781.622 13151942.199 -21756461.144 10 0 59500 19800.00000 0 -4111799.253 14616515.333 -20485534.994 10 0 59500 20700.00000 0 -6014964.854 16126547.106 -18816336.721 10 0 59500 21600.00000 0 -7629324.502 17623261.670 -16781378.046 10 0 59500 22500.00000 0 -8936241.818 19044839.426 -14420272.526 10 0 59500 23400.00000 0 -9929908.272 20329007.118 -11778960.496 10 0 59500 24300.00000 0 -10617315.449 21415665.405 -8908811.306 10 0 59500 25200.00000 0 -11017692.246 22249443.361 -5865620.535 10 0 59500 26100.00000 0 -11161432.432 22782072.391 -2708522.058 10 0 59500 27000.00000 0 -11088559.440 22974479.710 501163.568 10 0 59500 27900.00000 0 -10846794.616 22798513.360 3701121.647 10 0 59500 28800.00000 0 -10489311.686 22238226.301 6829253.276 10 0 59500 29700.00000 0 -10072273.253 21290665.777 9824878.934 10 0 59500 30600.00000 0 -9652253.994 19966134.865 12629912.370 10 0 59500 31500.00000 0 -9283659.690 18287915.379 15189982.055 10 0 59500 32400.00000 0 -9016251.104 16291463.639 17455478.892 10 0 59500 33300.00000 0 -8892876.950 14023112.526 19382510.498 10 0 59500 34200.00000 0 -8947511.247 11538333.615 20933744.267 10 0 59500 35100.00000 0 -9203677.367 8899631.143 22079123.804 10 0 59500 36000.00000 0 -9673324.894 6174154.514 22796445.717 10 0 59500 36900.00000 0 -10356206.524 3431127.545 23071786.324 10 0 59500 37800.00000 0 -11239781.427 739199.892 22899770.571 10 0 59500 38700.00000 0 -12299649.816 -1836170.819 22283678.206 10 0 59500 39600.00000 0 -13500501.345 -4235198.776 21235385.066 10 0 59500 40500.00000 0 -14797538.766 -6406010.078 19775140.190 10 0 59500 41400.00000 0 -16138318.420 -8306551.250 17931182.337 10 0 59500 42300.00000 0 -17464931.632 -9906087.602 15739202.415 10 0 59500 43200.00000 0 -18716436.606 -11186229.856 13241661.166 10 0 59500 44100.00000 0 -19831439.572 -12141446.678 10486974.242 10 0 59500 45000.00000 0 -20750717.197 -12779042.049 7528579.600 10 0 59500 45900.00000 0 -21419769.996 -13118598.740 4423904.598 10 0 59500 46800.00000 0 -21791198.944 -13190911.552 1233252.409 10 0 59500 47700.00000 0 -21826804.389 -13036455.526 -1981370.592 10 0 59500 48600.00000 0 -21499317.748 -12703454.134 -5157463.432 10 0 59500 49500.00000 0 -20793691.726 -12245629.599 -8233251.148 10 0 59500 50400.00000 0 -19707893.322 -11719731.069 -11148892.803 10 0 59500 51300.00000 0 -18253164.847 -11182946.059 -13847652.652 10 0 59500 52200.00000 0 -16453740.726 -10690305.510 -16277010.863 10 0 59500 53100.00000 0 -14346030.965 -10292193.161 -18389691.413 10 0 59500 54000.00000 0 -11977304.653 -10032065.422 -20144586.666 10 0 59500 54900.00000 0 -9403928.045 -9944478.895 -21507560.347 10 0 59500 55800.00000 0 -6689230.539 -10053509.493 -22452113.126 10 0 59500 56700.00000 0 -3901087.324 -10371630.365 -22959897.994 10 0 59500 57600.00000 0 -1109319.310 -10899096.330 -23021075.604 10 0 59500 58500.00000 0 1616981.538 -11623860.952 -22634502.944 10 0 59500 59400.00000 0 4212090.423 -12522029.870 -21807751.999 10 0 59500 60300.00000 0 6616142.202 -13558831.325 -20556958.294 10 0 59500 61200.00000 0 8777374.927 -14690062.962 -18906502.526 10 0 59500 62100.00000 0 10654031.926 -15863953.908 -16888531.664 10 0 59500 63000.00000 0 12215844.260 -17023363.623 -14542328.955 10 0 59500 63900.00000 0 13445032.937 -18108224.730 -11913545.307 10 0 59500 64800.00000 0 14336790.566 -19058126.785 -9053307.162 10 0 59500 65700.00000 0 14899223.988 -19814931.942 -6017218.427 10 0 59500 66600.00000 0 15152761.955 -20325312.118 -2864276.232 10 0 59500 67500.00000 0 15129054.547 -20543100.605 344278.066 10 0 59500 68400.00000 0 14869412.245 -20431358.950 3546149.982 10 0 59500 69300.00000 0 14422851.805 -19964071.969 6679201.527 10 0 59500 70200.00000 0 13843832.519 -19127399.542 9682655.703 10 0 59500 71100.00000 0 13189779.147 -17920432.463 12498272.428 10 0 59500 72000.00000 0 12518496.486 -16355420.546 15071473.136 10 0 59500 72900.00000 0 11885584.766 -14457463.213 17352392.641 10 0 59500 73800.00000 0 11341964.632 -12263675.115 19296838.518 10 0 59500 74700.00000 0 10931615.612 -9821861.186 20867140.040 10 0 59500 75600.00000 0 10689622.744 -7188755.547 22032871.194 10 0 59500 76500.00000 0 10640613.004 -4427896.607 22771434.593 10 0 59500 77400.00000 0 10797646.884 -1607225.540 23068495.723 10 0 59500 78300.00000 0 11161611.454 1203493.481 22918259.679 10 0 59500 79200.00000 0 11721140.546 3935325.722 22323585.312 10 0 59500 80100.00000 0 12453065.793 6522782.294 21295934.488 10 0 59500 81000.00000 0 13323380.314 8906293.376 19855157.061 10 0 59500 81900.00000 0 14288675.531 11034436.771 18029114.991 10 0 59500 82800.00000 0 15297991.779 12865830.078 15853151.980 10 0 59500 83700.00000 0 16295005.959 14370608.535 13369417.851 10 0 59500 84600.00000 0 17220465.095 15531427.443 10626059.659 10 0 59500 85500.00000 0 18014763.896 16343947.586 7676294.390 10 0 59501 0.00000 0 18620557.936 16816783.559 4577380.728 10 0 59501 900.00000 0 18985302.348 16970917.568 1389507.790 10 0 59501 1800.00000 0 19063607.557 16838602.916 -1825373.423 10 0 59501 2700.00000 0 18819312.766 16461804.544 -5004758.495 10 0 59501 3600.00000 0 18227187.562 15890242.060 -8086809.816 10 0 59501 4500.00000 0 17274188.791 15179118.720 -11011565.705 10 0 59501 5400.00000 0 15960218.140 14386632.937 -13722113.843 10 0 59501 6300.00000 0 14298347.015 13571378.213 -16165705.406 10 0 59501 7200.00000 0 12314497.962 12789742.183 -18294787.435 10 0 59501 8100.00000 0 10046594.815 12093415.368 -20067932.874 10 0 59501 9000.00000 0 7543216.226 11527115.536 -21450649.845 10 0 59501 9900.00000 0 4861808.275 11126624.183 -22416054.237 10 0 59501 10800.00000 0 2066530.235 10917218.296 -22945392.658 10 0 59501 11700.00000 0 -774177.033 10912563.646 -23028405.752 10 0 59501 12600.00000 0 -3590199.028 11114116.201 -22663525.089 10 0 59501 13500.00000 0 -6312423.653 11511056.681 -21857900.132 10 0 59501 14400.00000 0 -8875374.430 12080760.742 -20627255.032 10 0 59501 15300.00000 0 -11219691.738 12789784.601 -18995578.297 10 0 59501 16200.00000 0 -13294359.475 13595324.172 -16994651.551 10 0 59501 17100.00000 0 -15058585.301 14447085.833 -14663426.700 10 0 59501 18000.00000 0 -16483257.008 15289489.538 -12047263.809 10 0 59501 18900.00000 0 -17551915.540 16064110.954 -9197044.667 10 0 59501 19800.00000 0 -18261205.385 16712259.279 -6168179.484 10 0 59501 20700.00000 0 -18620785.011 17177581.571 -3019526.407 10 0 59501 21600.00000 0 -18652702.737 17408583.445 187754.838 10 0 59501 22500.00000 0 -18390265.858 17360959.500 3391392.552 10 0 59501 23400.00000 0 -17876452.031 16999635.005 6529212.383 10 0 59501 24300.00000 0 -17161931.068 16300432.617 9540342.690 10 0 59501 25200.00000 0 -16302781.430 15251293.766 12366392.470 10 0 59501 26100.00000 0 -15357998.230 13853003.161 14952579.052 10 0 59501 27000.00000 0 -14386897.996 12119385.706 17248784.070 10 0 59501 27900.00000 0 -13446529.345 10076967.072 19210517.841 10 0 59501 28800.00000 0 -12589198.160 7764111.567 20799774.139 10 0 59501 29700.00000 0 -11860210.714 5229672.426 21985759.697 10 0 59501 30600.00000 0 -11295928.849 2531209.643 22745485.192 10 0 59501 31500.00000 0 -10922218.176 -267151.668 23064206.962 10 0 59501 32400.00000 0 -10753353.836 -3097134.885 22935711.540 10 0 59501 33300.00000 0 -10791429.356 -5888898.778 22362437.718 10 0 59501 34200.00000 0 -11026293.321 -8573691.794 21355433.769 10 0 59501 35100.00000 0 -11436016.708 -11086465.047 19934150.260 10 0 59501 36000.00000 0 -11987871.735 -13368336.836 18126071.768 10 0 59501 36900.00000 0 -12639781.763 -15368807.208 15966193.740 10 0 59501 37800.00000 0 -13342182.013 -17047631.287 13496353.589 10 0 59501 38700.00000 0 -14040213.520 -18376273.794 10764427.909 10 0 59501 39600.00000 0 -14676158.389 -19338884.296 7823410.485 10 0 59501 40500.00000 0 -15192013.965 -19932752.510 4730388.265 10 0 59501 41400.00000 0 -15532097.142 -20168224.661 1545434.688 10 0 59501 42300.00000 0 -15645568.378 -20068084.350 -1669558.106 10 0 59501 43200.00000 0 -15488767.929 -19666424.115 -4852085.350 10 0 59501 44100.00000 0 -15027264.412 -19007055.417 -7940250.018 10 0 59501 45000.00000 0 -14237527.775 -18141524.414 -10873972.996 10 0 59501 45900.00000 0 -13108154.495 -17126817.783 -13596168.726 10 0 59501 46800.00000 0 -11640591.743 -16022855.986 -16053862.665 10 0 59501 47700.00000 0 -9849328.521 -14889880.481 -18199228.035 10 0 59501 48600.00000 0 -7761544.310 -13785845.743 -19990521.192 10 0 59501 49500.00000 0 -5416228.756 -12763926.664 -21392897.090 10 0 59501 50400.00000 0 -2862808.297 -11870246.825 -22379088.800 10 0 59501 51300.00000 0 -159336.364 -11141923.521 -22929937.962 10 0 59501 52200.00000 0 2629677.951 -10605511.884 -23034766.060 10 0 59501 53100.00000 0 5435712.625 -10275913.345 -22691579.540 10 0 59501 54000.00000 0 8188845.512 -10155793.960 -21907105.141 10 0 59501 54900.00000 0 10820428.883 -10235536.482 -20696654.976 10 0 59501 55800.00000 0 13265714.682 -10493727.535 -19083824.278 10 0 59501 56700.00000 0 15466321.759 -10898158.598 -17100027.856 10 0 59501 57600.00000 0 17372442.936 -11407297.887 -14783884.427 10 0 59501 58500.00000 0 18944700.631 -11972170.312 -12180460.981 10 0 59501 59400.00000 0 20155574.542 -12538565.514 -9340392.056 10 0 59501 60300.00000 0 20990342.936 -13049480.140 -6318891.240 10 0 59501 61200.00000 0 21447499.325 -13447690.664 -3174674.490 10 0 59501 62100.00000 0 21538628.556 -13678347.595 31183.491 10 0 59501 63000.00000 0 21287748.921 -13691481.105 3236437.264 10 0 59501 63900.00000 0 20730149.307 -13444311.958 6378879.537 10 0 59501 64800.00000 0 19910771.536 -12903269.926 9397547.278 10 0 59501 65700.00000 0 18882206.969 -12045634.370 12233901.547 10 0 59501 66600.00000 0 17702392.355 -10860727.617 14832958.198 10 0 59501 67500.00000 0 16432102.244 -9350610.626 17144347.910 10 0 59501 68400.00000 0 15132343.360 -7530251.258 19123285.551 10 0 59501 69300.00000 0 13861760.129 -5427157.454 20731430.764 10 0 59501 70200.00000 0 12674159.651 -3080489.795 21937623.981 10 0 59501 71100.00000 0 11616259.144 -539689.344 22718484.485 10 0 59501 72000.00000 0 10725749.427 2137323.328 23058859.634 10 0 59501 72900.00000 0 10029754.701 4886304.492 22952117.193 10 0 59501 73800.00000 0 9543752.405 7639111.022 22400275.360 10 0 59501 74700.00000 0 9270997.882 10326292.390 21413967.974 10 0 59501 75600.00000 0 9202477.680 12879744.847 20012245.207 10 0 59501 76500.00000 0 9317393.426 15235318.918 18222212.913 10 0 59501 77400.00000 0 9584156.190 17335272.837 16078516.744 10 0 59501 78300.00000 0 9961849.919 19130470.717 13622679.990 10 0 59501 79200.00000 0 10402102.811 20582234.346 10902306.894 10 0 59501 80100.00000 0 10851288.153 21663771.527 7970166.011 10 0 59501 81000.00000 0 11252961.999 22361121.242 4883170.655 10 0 59501 81900.00000 0 11550434.723 22673575.977 1701275.736 10 0 59501 82800.00000 0 11689367.377 22613563.218 -1513687.576 10 0 59501 83700.00000 0 11620282.379 22205991.015 -4699216.570 10 0 59501 84600.00000 0 11300881.293 21487085.107 -7793357.184 10 0 59501 85500.00000 0 10698070.399 20502766.646 -10735915.161 10 0 59502 0.00000 0 9789607.064 19306639.333 -13469633.625 10 0 59502 900.00000 0 8565295.209 17957670.502 -15941314.812 10 0 59502 1800.00000 0 7027679.183 16517666.069 -18102859.692 10 0 59502 2700.00000 0 5192203.674 15048644.129 -19912209.712 10 0 59502 3600.00000 0 3086832.629 13610219.841 -21334168.182 10 0 59502 4500.00000 0 751141.598 12257111.432 -22341086.727 10 0 59502 5400.00000 0 -1765079.469 11036872.477 -22913403.224 10 0 59502 6300.00000 0 -4403655.411 9987945.698 -23040020.987 10 0 59502 7200.00000 0 -7100211.218 9138119.776 -22718522.072 10 0 59502 8100.00000 0 -9786622.997 8503453.415 -21955210.869 10 0 59502 9000.00000 0 -12393632.825 8087711.118 -20764987.444 10 0 59502 9900.00000 0 -14853518.885 7882333.419 -19171053.317 10 0 59502 10800.00000 0 -17102710.049 7866941.798 -17204455.627 10 0 59502 11700.00000 0 -19084236.456 8010355.896 -14903478.655 10 0 59502 12600.00000 0 -20749914.298 8272079.112 -12312894.753 10 0 59502 13500.00000 0 -22062174.380 8604188.881 -9483089.388 10 0 59502 14400.00000 0 -22995458.837 8953550.900 -6469077.502 10 0 59502 15300.00000 0 -23537128.501 9264262.962 -3329430.684 10 0 59502 16200.00000 0 -23687844.049 9480224.409 -125136.308 10 0 59502 17100.00000 0 -23461406.129 9547722.019 3081588.881 10 0 59502 18000.00000 0 -22884062.375 9417922.571 6228507.204 10 0 59502 18900.00000 0 -21993311.560 9049166.453 9254566.896 10 0 59502 19800.00000 0 -20836256.129 8408965.153 12101083.814 10 0 59502 20700.00000 0 -19467573.077 7475618.184 14712875.100 10 0 59502 21600.00000 0 -17947188.852 6239380.996 17039323.186 10 0 59502 22500.00000 0 -16337755.986 4703134.361 19035350.066 10 0 59502 23400.00000 0 -14702037.077 2882526.576 20662283.601 10 0 59502 24300.00000 0 -13100305.192 805581.680 21888599.975 10 0 59502 25200.00000 0 -11587868.741 -1488210.969 22690528.758 10 0 59502 26100.00000 0 -10212823.429 -3949289.048 23052509.610 10 0 59502 27000.00000 0 -9014124.255 -6519835.000 22967492.379 10 0 59502 27900.00000 0 -8020057.154 -9135945.170 22437075.104 10 0 59502 28800.00000 0 -7247173.369 -11730061.715 21471477.199 10 0 59502 29700.00000 0 -6699730.422 -14233567.802 20089348.052 10 0 59502 30600.00000 0 -6369662.657 -16579439.699 18317414.016 10 0 59502 31500.00000 0 -6237082.443 -18704846.503 16189969.811 10 0 59502 32400.00000 0 -6271290.931 -20553590.213 13748223.141 10 0 59502 33300.00000 0 -6432256.034 -22078284.968 11039504.148 10 0 59502 34200.00000 0 -6672495.570 -23242184.611 8116354.167 10 0 59502 35100.00000 0 -6939286.226 -24020582.142 5035510.684 10 0 59502 36000.00000 0 -7177105.007 -24401722.146 1856807.729 10 0 59502 36900.00000 0 -7330199.662 -24387187.519 -1357986.989 10 0 59502 37800.00000 0 -7345178.739 -23991743.851 -4546375.436 10 0 59502 38700.00000 0 -7173510.752 -23242647.698 -7646349.243 10 0 59502 39600.00000 0 -6773825.550 -22178447.618 -10597601.853 10 0 59502 40500.00000 0 -6113919.126 -20847328.515 -13342708.442 10 0 59502 41400.00000 0 -5172375.609 -19305069.069 -15828249.933 10 0 59502 42300.00000 0 -3939736.385 -17612698.650 -18005858.392 10 0 59502 43200.00000 0 -2419165.498 -15833952.607 -19833162.982 10 0 59502 44100.00000 0 -626581.824 -14032633.359 -21274617.728 10 0 59502 45000.00000 0 1409748.801 -12269988.478 -22302194.786 10 0 59502 45900.00000 0 3650145.583 -10602215.986 -22895929.819 10 0 59502 46800.00000 0 6044930.832 -9078201.457 -23044309.063 10 0 59502 47700.00000 0 8536275.537 -7737581.525 -22744490.798 10 0 59502 48600.00000 0 11060395.982 -6609214.385 -22002357.257 10 0 59502 49500.00000 0 13550010.256 -5710120.539 -20832396.228 10 0 59502 50400.00000 0 15936952.473 -5044937.191 -19257414.896 10 0 59502 51300.00000 0 18154836.053 -4605907.911 -17308091.699 10 0 59502 52200.00000 0 20141655.244 -4373406.645 -15022375.045 10 0 59502 53100.00000 0 21842216.609 -4316972.646 -12444740.774 10 0 59502 54000.00000 0 23210299.353 -4396811.377 -9625322.960 10 0 59502 54900.00000 0 24210454.711 -4565696.775 -6618935.170 10 0 59502 55800.00000 0 24819369.706 -4771193.476 -3484001.525 10 0 59502 56700.00000 0 25026738.976 -4958104.102 -281418.683 10 0 59502 57600.00000 0 24835609.017 -5071037.360 2926628.833 10 0 59502 58500.00000 0 24262181.328 -5056987.755 6077876.517 10 0 59502 59400.00000 0 23335083.701 -4867817.382 9111187.317 10 0 59502 60300.00000 0 22094141.096 -4462534.604 11967735.108 10 0 59502 61200.00000 0 20588698.362 -3809273.162 14592141.223 10 0 59502 62100.00000 0 18875565.658 -2886888.010 16933542.378 10 0 59502 63000.00000 0 17016672.789 -1686100.350 18946569.807 10 0 59502 63900.00000 0 15076530.581 -210143.331 20592221.285 10 0 59502 64800.00000 0 13119604.996 1525119.389 21838610.006 10 0 59502 65700.00000 0 11207712.950 3491608.077 22661576.668 10 0 59502 66600.00000 0 9397547.664 5649958.147 23045153.638 10 0 59502 67500.00000 0 7738435.692 7950930.711 22981872.837 10 0 59502 68400.00000 0 6270418.049 10337245.240 22472911.700 10 0 59502 69300.00000 0 5022734.476 12745759.580 21528074.382 10 0 59502 70200.00000 0 4012773.142 15109908.231 20165608.266 10 0 59502 71100.00000 0 3245528.904 17362298.911 18411858.657 10 0 59502 72000.00000 0 2713592.276 19437360.456 16300767.513 10 0 59502 72900.00000 0 2397669.234 21273932.709 13873224.881 10 0 59502 73800.00000 0 2267609.815 22817690.945 11176284.549 10 0 59502 74700.00000 0 2283902.252 24023303.715 8262258.224 10 0 59502 75600.00000 0 2399569.558 24856233.757 5187705.046 10 0 59502 76500.00000 0 2562388.411 25294106.148 2012335.563 10 0 59502 77400.00000 0 2717336.253 25327585.676 -1202148.609 10 0 59502 78300.00000 0 2809162.579 24960725.999 -4393256.722 10 0 59502 79200.00000 0 2784974.758 24210775.270 -7498928.631 10 0 59502 80100.00000 0 2596727.925 23107445.893 -10458747.857 10 0 59502 81000.00000 0 2203512.307 21691678.825 -13215123.586 10 0 59502 81900.00000 0 1573539.785 20013954.234 -15714417.903 10 0 59502 82800.00000 0 685744.309 18132219.625 -17907995.456 10 0 59502 83700.00000 0 -469072.895 16109522.656 -19753174.675 10 0 59502 84600.00000 0 -1887603.082 14011448.296 -21214061.639 10 0 59502 85500.00000 0 -3553922.887 11903468.069 -22262250.181 10 0 59503 0.00000 0 -5439925.935 9848312.831 -22877374.654 10 0 59503 900.00000 0 -7506277.105 7903477.910 -23047505.019 10 0 59503 1800.00000 0 -9703847.680 6118967.580 -22769376.118 10 0 59503 2700.00000 0 -11975575.408 4535368.979 -22048448.094 10 0 59503 3600.00000 0 -14258669.743 3182337.989 -20898796.128 10 0 59503 4500.00000 0 -16487071.413 2077558.308 -19342832.329 10 0 59503 5400.00000 0 -18594063.747 1226216.135 -17410865.294 10 0 59503 6300.00000 0 -20514926.883 621011.007 -15140506.052 10 0 59503 7200.00000 0 -22189524.080 242700.767 -12575932.118 10 0 59503 8100.00000 0 -23564712.227 61156.128 -9767024.133 10 0 59503 9000.00000 0 -24596475.975 36878.838 -6768392.053 10 0 59503 9900.00000 0 -25251696.425 122918.049 -3638310.167 10 0 59503 10800.00000 0 -25509480.771 267102.672 -437581.950 10 0 59503 11700.00000 0 -25361997.715 414494.347 2771642.875 10 0 59503 12600.00000 0 -24814784.244 509956.525 5927075.631 10 0 59503 13500.00000 0 -23886511.618 500730.373 8967496.711 10 0 59503 14400.00000 0 -22608221.058 338908.246 11833940.757 10 0 59503 15300.00000 0 -21022061.725 -16300.075 14470836.011 10 0 59503 16200.00000 0 -19179584.306 -596604.166 16827076.061 10 0 59503 17100.00000 0 -17139661.732 -1423055.746 18857003.762 10 0 59503 18000.00000 0 -14966123.898 -2504924.068 20521288.875 10 0 59503 18900.00000 0 -12725204.739 -3839071.621 21787683.293 10 0 59503 19800.00000 0 -10482907.422 -5409857.013 22631640.091 10 0 59503 20700.00000 0 -8302396.590 -7189569.961 23036785.132 10 0 59503 21600.00000 0 -6241525.142 -9139381.433 22995232.741 10 0 59503 22500.00000 0 -4350597.283 -11210770.661 22507739.647 10 0 59503 23400.00000 0 -2670459.869 -13347370.975 21583694.248 10 0 59503 24300.00000 0 -1231000.396 -15487159.121 20240941.070 10 0 59503 25200.00000 0 -50113.295 -17564898.285 18505443.201 10 0 59503 26100.00000 0 866823.047 -19514734.218 16410788.374 10 0 59503 27000.00000 0 1526937.277 -21272837.173 13997547.271 10 0 59503 27900.00000 0 1949324.881 -22779980.003 11312495.394 10 0 59503 28800.00000 0 2163999.725 -23983944.831 8407712.709 10 0 59503 29700.00000 0 2210381.716 -24841657.460 5339577.758 10 0 59503 30600.00000 0 2135384.545 -25320959.618 2167675.255 10 0 59503 31500.00000 0 1991184.597 -25401943.924 -1046361.685 10 0 59503 32400.00000 0 1832765.841 -25077794.664 -4240052.057 10 0 59503 33300.00000 0 1715345.288 -24355098.170 -7351286.425 10 0 59503 34200.00000 0 1691788.915 -23253608.876 -10319540.886 10 0 59503 35100.00000 0 1810128.523 -21805480.280 -13087061.142 10 0 59503 36000.00000 0 2111285.922 -20053992.596 -15599992.896 10 0 59503 36900.00000 0 2627101.949 -18051830.349 -17809435.741 10 0 59503 37800.00000 0 3378755.001 -15858982.132 -19672399.551 10 0 59503 38700.00000 0 4375637.120 -13540350.611 -21152644.383 10 0 59503 39600.00000 0 5614736.192 -11163173.091 -22221387.350 10 0 59503 40500.00000 0 7080551.380 -8794360.647 -22857862.790 10 0 59503 41400.00000 0 8745546.303 -6497866.991 -23049725.003 10 0 59503 42300.00000 0 10571121.702 -4332196.890 -22793285.982 10 0 59503 43200.00000 0 12509067.476 -2348157.675 -22093583.834 10 0 59503 44100.00000 0 14503433.770 -586947.003 -20964280.843 10 0 59503 45000.00000 0 16492743.077 921344.188 -19427393.407 10 0 59503 45900.00000 0 18412451.039 2158752.265 -17512859.308 10 0 59503 46800.00000 0 20197553.115 3119943.796 -15257950.860 10 0 59503 47700.00000 0 21785228.024 3812181.310 -12706545.545 10 0 59503 48600.00000 0 23117407.343 4254755.094 -9908268.467 10 0 59503 49500.00000 0 24143163.700 4477906.706 -6917523.499 10 0 59503 50400.00000 0 24820817.492 4521291.117 -3792432.282 10 0 59503 51300.00000 0 25119674.046 4432043.902 -593702.025 10 0 59503 52200.00000 0 25021318.569 4262536.366 2616555.587 10 0 59503 53100.00000 0 24520414.943 4067914.486 5776030.997 10 0 59503 54000.00000 0 23624975.266 3903526.501 8823425.263 10 0 59503 54900.00000 0 22356089.246 3822348.418 11699636.851 10 0 59503 55800.00000 0 20747125.163 3872516.518 14348903.716 10 0 59503 56700.00000 0 18842436.136 4095071.189 16719878.833 10 0 59503 57600.00000 0 16695625.797 4522007.337 18766618.845 10 0 59503 58500.00000 0 14367445.744 5174713.531 20449467.310 10 0 59503 59400.00000 0 11923412.002 6062865.737 21735816.257 10 0 59503 60300.00000 0 9431239.101 7183822.442 22600732.181 10 0 59503 61200.00000 0 6958197.692 8522547.127 23027435.071 10 0 59503 62100.00000 0 4568504.449 10052062.187 23007621.847 10 0 59503 63000.00000 0 2320851.493 11734416.476 22541628.275 10 0 59503 63900.00000 0 266176.850 13522127.284 21638426.268 10 0 59503 64800.00000 0 -1554232.596 15360038.021 20315456.322 10 0 59503 65700.00000 0 -3110227.831 17187515.435 18598297.718 10 0 59503 66600.00000 0 -4383812.993 18940895.902 16520182.027 10 0 59503 67500.00000 0 -5369647.641 20556079.621 14121358.330 10 0 59503 68400.00000 0 -6075015.564 21971165.002 11448321.398 10 0 59503 69300.00000 0 -6519261.812 23129013.266 8552916.870 10 0 59503 70200.00000 0 -6732721.959 23979635.726 5491340.014 10 0 59503 71100.00000 0 -6755188.996 24482303.175 2323046.997 10 0 59503 72000.00000 0 -6633982.814 24607287.982 -890400.287 10 0 59503 72900.00000 0 -6421704.321 24337164.724 -4086533.246 10 0 59503 73800.00000 0 -6173769.779 23667613.539 -7203195.734 10 0 59503 74700.00000 0 -5945830.471 22607691.340 -10179758.858 10 0 59503 75600.00000 0 -5791187.886 21179558.454 -12958307.082 10 0 59503 76500.00000 0 -5758314.923 19417671.370 -15484771.742 10 0 59503 77400.00000 0 -5888589.109 17367474.882 -17709989.149 10 0 59503 78300.00000 0 -6214334.857 15083648.117 -19590662.153 10 0 59503 79200.00000 0 -6757258.594 12627977.684 -21090206.080 10 0 59503 80100.00000 0 -7527343.792 10066946.961 -22179462.383 10 0 59503 81000.00000 0 -8522253.419 7469142.229 -22837266.166 10 0 59503 81900.00000 0 -9727265.774 4902583.864 -23050856.736 10 0 59503 82800.00000 0 -11115746.995 2432093.856 -22816123.416 10 0 59503 83700.00000 0 -12650140.964 116809.030 -22137682.199 10 0 59503 84600.00000 0 -14283435.420 -1992056.988 -21028782.009 10 0 59503 85500.00000 0 -15961043.009 -3853110.472 -19511042.676 99